星链-37485(STARLINK-37485)

导读

STARLINK-37485(NORAD编号69376)是美国SpaceX公司研发的Starlink v1.5平台星链组网卫星,2022年4月21日发射升空,属于星链低轨互联网星座部署的组成部分。该卫星轨道高度约539-540公里,轨道倾角53.2°,运行周期95.4分钟,截至2026年6月仍在轨正常运行,参与全球网络覆盖服务,可为偏远地区提供高速低延迟网络,同时支持应急通信等场景应用。

基本信息
目录编号:
69376
目录名称:
STARLINK-37485
国际标识:
2026-123Z
轨道中心:
EARTH
卫星名称:
星链-37485
卫星全名:
星链-37485(STARLINK-37485)
卫星状态:
在轨 (已飞行93 天)
发射日期:
2026-06-04 UTC
国别 :
美国 (US)
星等 :
--
轨道信息
数据来源 国际轨道数据 AOE轨道数据
星历时间 2026-09-04T15:23:11+0800
1天前
查看轨道信息
2026-09-03T22:00:00+0800
1天前
查看轨道信息
半长轴 6840.833km 6840.85km
偏心率 0.0001106 0.0001274
轨道倾角 53.160° 53.160°
近地点辐角 92.631° 87.773°
升交点赤经 217.434° 220.826°
平近点角 267.482° 228.528°
近地点 461.939km 461.841km
远地点 463.453km 463.585km
周期 93.848分钟 93.848分钟
每日圈数 15.344025 15.343969
详细信息
固有亮度:
5
最大亮度:
2.5
卫星平台:
Starlink V1.0
覆盖范围:
全球
运营商:
太空探索技术公司
运营商所在国:
美国
制造商(研发单位):
太空探索技术公司
制造商所在国:
美国
使用方式:
暂无
卫星简介
Starlink 计划是 SpaceX 推出的全球卫星互联网项目,通过发射低轨道卫星,为全球尤其是偏远地区提供高速、低延迟的互联网服务。自 2019 年起,Starlink 已部署数千颗卫星,旨在缩小全球数字鸿沟,推动互联网普及。该项目还为军事、航空等行业提供通信支持,带来广泛经济效益。
2D轨道图
3D轨道图
轨道高度分析图
轨道倾角分析图
轨道综合分析图
查看轨道综合分析图
交会数据列表
事件ID 空间交会对象 最接近时刻(TCA) 交会距离 交会风险概率(CRP) 交会风险指数(CRI) 操作
CDM_260907-074705-286706-937621
2026-09-07T
07:47:10+0000
0.432 km
远距离
1.87537E-4 高风险 0.8
CDM_260905-033704-579406-937624
2026-09-05T
03:37:25+0000
1.545 km
极远距离
6.06779E-6 低风险 0.51
CDM_260907-003706-388106-937621
2026-09-07T
00:37:55+0000
1.848 km
极远距离
2.335281E-6 低风险 0.42
CDM_260907-061305-286706-937621
2026-09-07T
06:13:23+0000
2.366 km
极远距离
1.267489E-6 低风险 0.37
CDM_260831-054706-232006-937621
2026-08-31T
05:47:47+0000
2.954 km
极远距离
1.193124E-6 低风险 0.37